Waterloo, IA

6:44 PM CDT on September 20, 2019 (GMT -0500)
Waterloo Municipal

Weather History for KALO - August, 2019

Change the Weather History Date:

Wednesday, August 21, 2019

  Actual Average Record
Temperature  
Mean Temperature 70 °F 71 °F  
Max Temperature 79 °F 82 °F 100 °F (1916)
Min Temperature 61 °F 60 °F 39 °F (2004)
Degree Days  
Heating Degree Days 0 1  
Month to date heating degree days 0 4  
Since 1 June heating degree days 9 34  
Since 1 July heating degree days 0 8  
Cooling Degree Days 5 6  
Month to date cooling degree days 166 152  
Year to date cooling degree days 744 656  
Since 1 June cooling degree days 707 600  
Growing Degree Days 20 (Base 50)    
Moisture  
Dew Point 66 °F    
Average Humidity 83    
Maximum Humidity 93    
Minimum Humidity 64    
Precipitation  
Precipitation 0.00 in 0.14 in 1.29 in (1920)
Month to date precipitation 3.44 3.01  
Year to date precipitation 28.23 25.02  
Snow  
Snow 0.00 in 0.00 in - ()
Month to date snowfall 0.0 0.0  
Since 1 June snowfall 0.0 0.0  
Since 1 July snowfall 0.0 0.0  
Snow Depth 0.00 in    
Sea Level Pressure  
Sea Level Pressure 29.99 in    
Wind  
Wind Speed 5 mph ()    
Max Wind Speed 15 mph    
Max Gust Speed 19 mph    
Visibility 9.9 miles    
Events      
T = Trace of Precipitation, MM = Missing Value Source: Averaged Metar Reports

Daily Weather History Graph

Daily Weather History Graph

Search for Another Location

Airport or City:

Astronomy

Aug. 21, 2019 Rise Set
Actual Time 6:22 AM CDT 8:02 PM CDT
Civil Twilight 5:52 AM CDT 8:31 PM CDT
Nautical Twilight 5:16 AM CDT 9:08 PM CDT
Astronomical Twilight 4:37 AM CDT 9:46 PM CDT
Moon 11:12 PM CDT (8/21) 12:05 PM CDT (8/21)
Length of Visible Light 14h 39m
Length of Day
13h 39m
Waning Gibbous, 69% of the Moon is Illuminated
Aug 21
Waning Gibbous
Aug 23
Last Quarter
Aug 30
New
Sep 5
First Quarter
Sep 13
Full

Hourly Weather History & Observations

Time (CDT) Temp. Dew Point Humidity Pressure Visibility Wind Dir Wind Speed Gust Speed Precip Events Conditions
12:54 AM 73.9 °F 70.0 °F 87% 29.96 in 10.0 mi SSW 4.6 mph - N/A   Scattered Clouds
1:46 AM 75.0 °F 70.0 °F 84% 29.98 in 10.0 mi South 4.6 mph - N/A   Mostly Cloudy
1:54 AM 73.9 °F 70.0 °F 87% 29.96 in 10.0 mi SSW 5.8 mph - N/A   Scattered Clouds
2:54 AM 72.0 °F 69.1 °F 91% 29.94 in 10.0 mi Calm Calm - N/A   Mostly Cloudy
3:28 AM 72.0 °F 69.1 °F 91% 29.95 in 10.0 mi NW 3.5 mph - N/A   Overcast
3:54 AM 72.0 °F 69.1 °F 91% 29.90 in 10.0 mi North 3.5 mph - N/A   Overcast
4:07 AM 71.1 °F 68.0 °F 90% 29.91 in 9.0 mi ENE 4.6 mph - N/A   Scattered Clouds
4:33 AM 71.1 °F 68.0 °F 90% 29.93 in 10.0 mi South 3.5 mph - N/A   Mostly Cloudy
4:54 AM 72.0 °F 70.0 °F 93% 29.94 in 10.0 mi Calm Calm - N/A   Overcast
5:09 AM 72.0 °F 69.1 °F 91% 29.96 in 10.0 mi Calm Calm - N/A   Mostly Cloudy
5:54 AM 69.1 °F 66.9 °F 93% 29.93 in 10.0 mi NW 3.5 mph - N/A   Partly Cloudy
6:11 AM 71.1 °F 68.0 °F 90% 29.97 in 8.0 mi NW 4.6 mph - N/A   Mostly Cloudy
6:21 AM 71.1 °F 68.0 °F 90% 29.97 in 9.0 mi NW 3.5 mph - N/A   Mostly Cloudy
6:54 AM 71.1 °F 69.1 °F 93% 29.97 in 8.0 mi NW 5.8 mph - N/A   Mostly Cloudy
7:12 AM 72.0 °F 69.1 °F 91% 29.99 in 10.0 mi NNW 5.8 mph - N/A   Mostly Cloudy
7:20 AM 72.0 °F 69.1 °F 91% 29.99 in 10.0 mi NNW 5.8 mph - N/A   Mostly Cloudy
7:54 AM 72.0 °F 68.0 °F 87% 29.97 in 10.0 mi North 8.1 mph - N/A   Mostly Cloudy
8:01 AM 72.0 °F 68.0 °F 87% 29.99 in 10.0 mi North 10.4 mph - N/A   Mostly Cloudy
8:20 AM 72.0 °F 68.0 °F 87% 30.00 in 10.0 mi North 6.9 mph - N/A   Overcast
8:38 AM 72.0 °F 68.0 °F 87% 30.01 in 10.0 mi NNW 6.9 mph - N/A   Overcast
8:54 AM 72.0 °F 66.9 °F 84% 30.00 in 10.0 mi NNW 5.8 mph - N/A   Overcast
9:28 AM 73.0 °F 66.9 °F 81% 30.01 in 10.0 mi NNW 15.0 mph - N/A   Scattered Clouds
9:54 AM 73.0 °F 66.9 °F 81% 30.02 in 10.0 mi NNW 10.4 mph - N/A   Scattered Clouds
10:01 AM 73.0 °F 66.9 °F 81% 30.03 in 10.0 mi NNW 8.1 mph - N/A   Mostly Cloudy
10:09 AM 73.0 °F 66.9 °F 81% 30.04 in 10.0 mi NW 10.4 mph - N/A   Mostly Cloudy
10:54 AM 73.0 °F 66.9 °F 81% 30.05 in 10.0 mi NW 5.8 mph - N/A   Overcast
11:54 AM 73.9 °F 66.9 °F 79% 30.06 in 10.0 mi NW 5.8 mph - N/A   Mostly Cloudy
12:42 PM 73.9 °F 66.0 °F 76% 30.04 in 10.0 mi NW 9.2 mph - N/A   Scattered Clouds
12:54 PM 75.0 °F 66.9 °F 76% 30.03 in 10.0 mi NW 5.8 mph - N/A   Partly Cloudy
1:54 PM 75.9 °F 64.9 °F 69% 30.02 in 10.0 mi NW 11.5 mph - N/A   Partly Cloudy
2:54 PM 75.9 °F 64.0 °F 67% 30.01 in 10.0 mi WNW 9.2 mph - N/A   Partly Cloudy
3:54 PM 75.9 °F 63.0 °F 64% 29.99 in 10.0 mi NW 9.2 mph - N/A   Clear
4:54 PM 75.0 °F 62.1 °F 64% 29.99 in 10.0 mi NNW 13.8 mph - N/A   Clear
5:54 PM 72.0 °F 61.0 °F 68% 30.00 in 10.0 mi NNW 8.1 mph - N/A   Mostly Cloudy
6:54 PM 71.1 °F 61.0 °F 70% 29.99 in 10.0 mi North 6.9 mph - N/A   Mostly Cloudy
7:54 PM 69.1 °F 61.0 °F 75% 29.99 in 10.0 mi NNW 4.6 mph - N/A   Clear
8:54 PM 68.0 °F 60.1 °F 76% 30.02 in 10.0 mi Calm Calm - N/A   Clear
9:54 PM 64.9 °F 62.1 °F 90% 30.03 in 10.0 mi NW 4.6 mph - N/A   Clear
10:54 PM 63.0 °F 61.0 °F 93% 30.04 in 10.0 mi WNW 3.5 mph - N/A   Clear
11:54 PM 63.0 °F 60.1 °F 90% 30.05 in 10.0 mi NW 3.5 mph - N/A   Clear